Data supplied by UK-AIR on 15/3/2019
All Data GMT hour ending 
Status: R =Ratified P=Provisional,P*=As supplied
,,Hartlepool St Abbs Walk,,,,,,,,,,,,,,,,,,,,,,,
Date,time,"Nitric oxide",status,unit,"Nitrogen dioxide",status,unit,"Nitrogen oxides as nitrogen dioxide",status,unit
 
01-01-2018,01:00,0.45373,R,ugm-3,4.27795,R,ugm-3,4.97366,R,ugm-3
01-01-2018,02:00,0.34030,R,ugm-3,5.73355,R,ugm-3,6.25533,R,ugm-3
01-01-2018,03:00,0.15125,R,ugm-3,4.01484,R,ugm-3,4.24674,R,ugm-3
01-01-2018,04:00,0.26468,R,ugm-3,2.29142,R,ugm-3,2.69725,R,ugm-3
01-01-2018,05:00,0.22687,R,ugm-3,2.17723,R,ugm-3,2.52509,R,ugm-3
01-01-2018,06:00,0.26468,R,ugm-3,2.17664,R,ugm-3,2.58248,R,ugm-3
01-01-2018,07:00,0.15125,R,ugm-3,6.19559,R,ugm-3,6.42750,R,ugm-3
01-01-2018,08:00,0.34030,R,ugm-3,4.47100,R,ugm-3,4.99279,R,ugm-3
01-01-2018,09:00,0.15125,R,ugm-3,7.40075,R,ugm-3,7.63266,R,ugm-3
01-01-2018,10:00,0.98309,R,ugm-3,10.02768,R,ugm-3,11.53507,R,ugm-3
01-01-2018,11:00,1.13434,R,ugm-3,10.94354,R,ugm-3,12.68283,R,ugm-3
01-01-2018,12:00,1.66369,R,ugm-3,13.57518,R,ugm-3,16.12614,R,ugm-3
01-01-2018,13:00,2.19305,R,ugm-3,13.39478,R,ugm-3,16.75741,R,ugm-3
01-01-2018,14:00,1.36120,R,ugm-3,10.48091,R,ugm-3,12.56806,R,ugm-3
01-01-2018,15:00,1.66369,R,ugm-3,22.69993,R,ugm-3,25.25089,R,ugm-3
01-01-2018,16:00,0.79404,R,ugm-3,25.29593,R,ugm-3,26.51344,R,ugm-3
01-01-2018,17:00,0.60498,R,ugm-3,26.10231,R,ugm-3,27.02993,R,ugm-3
01-01-2018,18:00,5.70949,R,ugm-3,53.28242,R,ugm-3,62.03685,R,ugm-3
01-01-2018,19:00,1.62588,R,ugm-3,27.52115,R,ugm-3,30.01413,R,ugm-3
01-01-2018,20:00,0.68060,R,ugm-3,15.13995,R,ugm-3,16.18353,R,ugm-3
01-01-2018,21:00,0.49155,R,ugm-3,9.86316,R,ugm-3,10.61685,R,ugm-3
01-01-2018,22:00,0.79404,R,ugm-3,13.30176,R,ugm-3,14.51926,R,ugm-3
01-01-2018,23:00,0.41592,R,ugm-3,4.64199,R,ugm-3,5.27973,R,ugm-3
01-01-2018,24:00,0.75622,R,ugm-3,8.59650,R,ugm-3,9.75603,R,ugm-3
02-01-2018,01:00,0.24943,R,ugm-3,2.57209,R,ugm-3,2.95454,R,ugm-3
02-01-2018,02:00,0.44897,R,ugm-3,1.88735,R,ugm-3,2.57575,R,ugm-3
02-01-2018,03:00,0.29931,R,ugm-3,2.26833,R,ugm-3,2.72727,R,ugm-3
02-01-2018,04:00,0.33673,R,ugm-3,4.93823,R,ugm-3,5.45454,R,ugm-3
02-01-2018,05:00,0.22448,R,ugm-3,7.66715,R,ugm-3,8.01135,R,ugm-3
02-01-2018,06:00,0.22448,R,ugm-3,15.62168,R,ugm-3,15.96588,R,ugm-3
02-01-2018,07:00,2.73122,R,ugm-3,38.59621,R,ugm-3,42.78402,R,ugm-3
02-01-2018,08:00,14.92819,R,ugm-3,64.32619,R,ugm-3,87.21577,R,ugm-3
02-01-2018,09:00,19.49270,R,ugm-3,73.06598,R,ugm-3,102.95438,R,ugm-3
02-01-2018,10:00,4.07813,R,ugm-3,48.40596,R,ugm-3,54.65900,R,ugm-3
02-01-2018,11:00,2.88088,R,ugm-3,33.93492,R,ugm-3,38.35221,R,ugm-3
02-01-2018,12:00,5.53728,R,ugm-3,44.40727,R,ugm-3,52.89764,R,ugm-3
02-01-2018,13:00,5.12572,R,ugm-3,36.79969,R,ugm-3,44.65902,R,ugm-3
02-01-2018,14:00,3.40468,R,ugm-3,32.50678,R,ugm-3,37.72721,R,ugm-3
02-01-2018,15:00,3.14278,R,ugm-3,31.77199,R,ugm-3,36.59085,R,ugm-3
02-01-2018,16:00,3.51692,R,ugm-3,45.06193,R,ugm-3,50.45446,R,ugm-3
02-01-2018,17:00,5.64952,R,ugm-3,60.31469,R,ugm-3,68.97716,R,ugm-3
02-01-2018,18:00,4.07813,R,ugm-3,54.14459,R,ugm-3,60.39763,R,ugm-3
02-01-2018,19:00,0.82311,R,ugm-3,28.28332,R,ugm-3,29.54541,R,ugm-3
02-01-2018,20:00,0.82311,R,ugm-3,27.94242,R,ugm-3,29.20450,R,ugm-3
02-01-2018,21:00,0.86052,R,ugm-3,20.78279,R,ugm-3,22.10224,R,ugm-3
02-01-2018,22:00,0.41155,R,ugm-3,18.57347,R,ugm-3,19.20451,R,ugm-3
02-01-2018,23:00,0.48638,R,ugm-3,14.53829,R,ugm-3,15.28407,R,ugm-3
02-01-2018,24:00,0.03741,R,ugm-3,4.54490,R,ugm-3,4.60227,R,ugm-3
03-01-2018,01:00,0.44420,R,ugm-3,1.34382,R,ugm-3,2.02492,R,ugm-3
03-01-2018,02:00,0.24678,R,ugm-3,1.04655,R,ugm-3,1.42494,R,ugm-3
03-01-2018,03:00,0.22210,R,ugm-3,1.06565,R,ugm-3,1.40619,R,ugm-3
03-01-2018,04:00,0.37017,R,ugm-3,1.11985,R,ugm-3,1.68743,R,ugm-3
03-01-2018,05:00,0.29614,R,ugm-3,1.40211,R,ugm-3,1.85618,R,ugm-3
03-01-2018,06:00,0.44420,R,ugm-3,2.13129,R,ugm-3,2.81239,R,ugm-3
03-01-2018,07:00,0.51824,R,ugm-3,3.93020,R,ugm-3,4.72481,R,ugm-3
03-01-2018,08:00,0.59227,R,ugm-3,6.51657,R,ugm-3,7.42471,R,ugm-3
03-01-2018,09:00,0.85139,R,ugm-3,9.77537,R,ugm-3,11.08082,R,ugm-3
03-01-2018,10:00,1.40664,R,ugm-3,12.80509,R,ugm-3,14.96191,R,ugm-3
03-01-2018,11:00,2.10996,R,ugm-3,11.44545,R,ugm-3,14.68067,R,ugm-3
03-01-2018,12:00,2.22101,R,ugm-3,11.27517,R,ugm-3,14.68067,R,ugm-3
03-01-2018,13:00,2.18399,R,ugm-3,11.38818,R,ugm-3,14.73692,R,ugm-3
03-01-2018,14:00,2.10996,R,ugm-3,11.27670,R,ugm-3,14.51193,R,ugm-3
03-01-2018,15:00,1.92488,R,ugm-3,11.56049,R,ugm-3,14.51193,R,ugm-3
03-01-2018,16:00,1.22156,R,ugm-3,13.37013,R,ugm-3,15.24315,R,ugm-3
03-01-2018,17:00,1.03647,R,ugm-3,19.10995,R,ugm-3,20.69919,R,ugm-3
03-01-2018,18:00,0.77735,R,ugm-3,17.87607,R,ugm-3,19.06800,R,ugm-3
03-01-2018,19:00,0.59227,R,ugm-3,18.38486,R,ugm-3,19.29299,R,ugm-3
03-01-2018,20:00,0.55525,R,ugm-3,14.95425,R,ugm-3,15.80563,R,ugm-3
03-01-2018,21:00,0.55525,R,ugm-3,11.74813,R,ugm-3,12.59950,R,ugm-3
03-01-2018,22:00,0.96244,R,ugm-3,13.65494,R,ugm-3,15.13065,R,ugm-3
03-01-2018,23:00,0.44420,R,ugm-3,8.54354,R,ugm-3,9.22464,R,ugm-3
03-01-2018,24:00,0.22210,R,ugm-3,7.64664,R,ugm-3,7.98719,R,ugm-3
04-01-2018,01:00,0.34178,R,ugm-3,4.82098,R,ugm-3,5.34504,R,ugm-3
04-01-2018,02:00,0.43944,R,ugm-3,14.32201,R,ugm-3,14.99580,R,ugm-3
04-01-2018,03:00,0.36620,R,ugm-3,12.30001,R,ugm-3,12.86150,R,ugm-3
04-01-2018,04:00,0.07324,R,ugm-3,7.40416,R,ugm-3,7.51646,R,ugm-3
04-01-2018,05:00,0.29296,R,ugm-3,6.73320,R,ugm-3,7.18240,R,ugm-3
04-01-2018,06:00,0.62253,R,ugm-3,31.11569,R,ugm-3,32.07023,R,ugm-3
04-01-2018,07:00,2.52676,R,ugm-3,51.97021,R,ugm-3,55.84452,R,ugm-3
04-01-2018,08:00,23.25348,R,ugm-3,72.08110,R,ugm-3,107.73593,R,ugm-3
04-01-2018,09:00,17.83377,R,ugm-3,64.85718,R,ugm-3,92.20192,R,ugm-3
04-01-2018,10:00,10.65632,R,ugm-3,59.93869,R,ugm-3,76.27815,R,ugm-3
04-01-2018,11:00,3.40563,R,ugm-3,38.59629,R,ugm-3,43.81818,R,ugm-3
04-01-2018,12:00,10.25350,R,ugm-3,54.71020,R,ugm-3,70.43202,R,ugm-3
04-01-2018,13:00,3.62535,R,ugm-3,23.22648,R,ugm-3,28.78526,R,ugm-3
04-01-2018,14:00,1.79436,R,ugm-3,12.39296,R,ugm-3,15.14428,R,ugm-3
04-01-2018,15:00,1.13521,R,ugm-3,12.29010,R,ugm-3,14.03073,R,ugm-3
04-01-2018,16:00,0.95211,R,ugm-3,10.06536,R,ugm-3,11.52524,R,ugm-3
04-01-2018,17:00,2.23380,R,ugm-3,12.44297,R,ugm-3,15.86808,R,ugm-3
04-01-2018,18:00,2.19718,R,ugm-3,38.94593,R,ugm-3,42.31489,R,ugm-3
04-01-2018,19:00,1.31831,R,ugm-3,27.87743,R,ugm-3,29.89881,R,ugm-3
04-01-2018,20:00,0.84225,R,ugm-3,13.63013,R,ugm-3,14.92157,R,ugm-3
04-01-2018,21:00,0.62253,R,ugm-3,8.51063,R,ugm-3,9.46517,R,ugm-3
04-01-2018,22:00,0.43944,R,ugm-3,9.18112,R,ugm-3,9.85492,R,ugm-3
04-01-2018,23:00,0.76901,R,ugm-3,16.91605,R,ugm-3,18.09518,R,ugm-3
04-01-2018,24:00,0.58591,R,ugm-3,12.29717,R,ugm-3,13.19556,R,ugm-3
05-01-2018,01:00,0.28978,R,ugm-3,20.49641,R,ugm-3,20.94073,R,ugm-3
05-01-2018,02:00,0.24148,R,ugm-3,16.45579,R,ugm-3,16.82606,R,ugm-3
05-01-2018,03:00,0.21734,R,ugm-3,7.16134,R,ugm-3,7.49458,R,ugm-3
05-01-2018,04:00,0.28978,R,ugm-3,5.39704,R,ugm-3,5.84136,R,ugm-3
05-01-2018,05:00,0.39845,R,ugm-3,6.27745,R,ugm-3,6.88840,R,ugm-3
05-01-2018,06:00,0.43467,R,ugm-3,11.34688,R,ugm-3,12.01337,R,ugm-3
05-01-2018,07:00,1.70246,R,ugm-3,20.75505,R,ugm-3,23.36545,R,ugm-3
05-01-2018,08:00,6.33893,R,ugm-3,43.45887,R,ugm-3,53.17843,R,ugm-3
05-01-2018,09:00,7.64294,R,ugm-3,54.68514,R,ugm-3,66.40416,R,ugm-3
05-01-2018,10:00,12.78653,R,ugm-3,51.09677,R,ugm-3,70.70252,R,ugm-3
05-01-2018,11:00,22.27682,R,ugm-3,57.04508,R,ugm-3,91.20239,R,ugm-3
05-01-2018,12:00,21.40748,R,ugm-3,52.92243,R,ugm-3,85.74678,R,ugm-3
05-01-2018,13:00,31.22377,R,ugm-3,58.53619,R,ugm-3,106.41197,R,ugm-3
05-01-2018,14:00,13.51098,R,ugm-3,45.30186,R,ugm-3,66.01841,R,ugm-3
05-01-2018,15:00,12.75031,R,ugm-3,54.56896,R,ugm-3,74.11916,R,ugm-3
05-01-2018,16:00,5.39715,R,ugm-3,40.99031,R,ugm-3,49.26582,R,ugm-3
05-01-2018,17:00,3.83958,R,ugm-3,37.75761,R,ugm-3,43.64489,R,ugm-3
05-01-2018,18:00,2.20957,R,ugm-3,26.25970,R,ugm-3,29.64767,R,ugm-3
05-01-2018,19:00,1.59379,R,ugm-3,26.26707,R,ugm-3,28.71084,R,ugm-3
05-01-2018,20:00,1.01423,R,ugm-3,21.92053,R,ugm-3,23.47566,R,ugm-3
05-01-2018,21:00,0.72445,R,ugm-3,16.02753,R,ugm-3,17.13833,R,ugm-3
05-01-2018,22:00,0.76067,R,ugm-3,16.90881,R,ugm-3,18.07516,R,ugm-3
05-01-2018,23:00,0.97801,R,ugm-3,3.12941,R,ugm-3,4.62900,R,ugm-3
05-01-2018,24:00,0.25356,R,ugm-3,1.37465,R,ugm-3,1.76343,R,ugm-3
06-01-2018,01:00,0.28660,R,ugm-3,0.86943,R,ugm-3,1.30888,R,ugm-3
06-01-2018,02:00,0.28660,R,ugm-3,0.86943,R,ugm-3,1.30888,R,ugm-3
06-01-2018,03:00,0.21495,R,ugm-3,0.81569,R,ugm-3,1.14527,R,ugm-3
06-01-2018,04:00,0.17913,R,ugm-3,0.76154,R,ugm-3,1.03620,R,ugm-3
06-01-2018,05:00,0.28660,R,ugm-3,1.74203,R,ugm-3,2.18148,R,ugm-3
06-01-2018,06:00,0.39408,R,ugm-3,2.23167,R,ugm-3,2.83592,R,ugm-3
06-01-2018,07:00,0.50155,R,ugm-3,2.99401,R,ugm-3,3.76305,R,ugm-3
06-01-2018,08:00,0.64486,R,ugm-3,2.39252,R,ugm-3,3.38129,R,ugm-3
06-01-2018,09:00,0.68068,R,ugm-3,1.41047,R,ugm-3,2.45416,R,ugm-3
06-01-2018,10:00,0.96728,R,ugm-3,3.04342,R,ugm-3,4.52656,R,ugm-3
06-01-2018,11:00,1.28971,R,ugm-3,4.78504,R,ugm-3,6.76257,R,ugm-3
06-01-2018,12:00,1.39719,R,ugm-3,3.85673,R,ugm-3,5.99906,R,ugm-3
06-01-2018,13:00,1.43301,R,ugm-3,3.09282,R,ugm-3,5.29008,R,ugm-3
06-01-2018,14:00,1.28971,R,ugm-3,2.60357,R,ugm-3,4.58110,R,ugm-3
06-01-2018,15:00,1.28971,R,ugm-3,6.96652,R,ugm-3,8.94405,R,ugm-3
06-01-2018,16:00,1.21806,R,ugm-3,5.71296,R,ugm-3,7.58063,R,ugm-3
06-01-2018,17:00,2.32864,R,ugm-3,6.35517,R,ugm-3,9.92571,R,ugm-3
06-01-2018,18:00,1.11058,R,ugm-3,3.15091,R,ugm-3,4.85378,R,ugm-3
06-01-2018,19:00,0.64486,R,ugm-3,2.17438,R,ugm-3,3.16314,R,ugm-3
06-01-2018,20:00,1.00311,R,ugm-3,2.27951,R,ugm-3,3.81758,R,ugm-3
06-01-2018,21:00,0.53738,R,ugm-3,1.63019,R,ugm-3,2.45416,R,ugm-3
06-01-2018,22:00,0.60903,R,ugm-3,1.79301,R,ugm-3,2.72684,R,ugm-3
06-01-2018,23:00,0.60903,R,ugm-3,1.19311,R,ugm-3,2.12694,R,ugm-3
06-01-2018,24:00,0.25078,R,ugm-3,1.03344,R,ugm-3,1.41796,R,ugm-3
07-01-2018,01:00,0.14171,R,ugm-3,1.14986,R,ugm-3,1.36715,R,ugm-3
07-01-2018,02:00,0.28343,R,ugm-3,1.07649,R,ugm-3,1.51106,R,ugm-3
07-01-2018,03:00,0.28343,R,ugm-3,0.69872,R,ugm-3,1.13330,R,ugm-3
07-01-2018,04:00,0.35428,R,ugm-3,0.32024,R,ugm-3,0.86347,R,ugm-3
07-01-2018,05:00,0.38971,R,ugm-3,0.75162,R,ugm-3,1.34917,R,ugm-3
07-01-2018,06:00,0.35428,R,ugm-3,1.88527,R,ugm-3,2.42850,R,ugm-3
07-01-2018,07:00,0.28343,R,ugm-3,1.13045,R,ugm-3,1.56503,R,ugm-3
07-01-2018,08:00,0.28343,R,ugm-3,0.69872,R,ugm-3,1.13330,R,ugm-3
07-01-2018,09:00,0.85027,R,ugm-3,2.63583,R,ugm-3,3.93956,R,ugm-3
07-01-2018,10:00,0.74399,R,ugm-3,1.66549,R,ugm-3,2.80626,R,ugm-3
07-01-2018,11:00,0.95656,R,ugm-3,2.68872,R,ugm-3,4.15543,R,ugm-3
07-01-2018,12:00,4.25137,R,ugm-3,28.82943,R,ugm-3,35.34811,R,ugm-3
07-01-2018,13:00,1.73598,R,ugm-3,7.48392,R,ugm-3,10.14572,R,ugm-3
07-01-2018,14:00,2.05483,R,ugm-3,10.93458,R,ugm-3,14.08528,R,ugm-3
07-01-2018,15:00,3.25939,R,ugm-3,16.31914,R,ugm-3,21.31680,R,ugm-3
07-01-2018,16:00,1.52341,R,ugm-3,12.12718,R,ugm-3,14.46304,R,ugm-3
07-01-2018,17:00,0.88570,R,ugm-3,7.33056,R,ugm-3,8.68862,R,ugm-3
07-01-2018,18:00,0.53142,R,ugm-3,24.17169,R,ugm-3,24.98653,R,ugm-3
07-01-2018,19:00,12.75412,R,ugm-3,34.89624,R,ugm-3,54.45228,R,ugm-3
07-01-2018,20:00,27.20879,R,ugm-3,76.84502,R,ugm-3,118.56458,R,ugm-3
07-01-2018,21:00,11.54956,R,ugm-3,66.37085,R,ugm-3,84.07993,R,ugm-3
07-01-2018,22:00,81.69721,R,ugm-3,82.55798,R,ugm-3,207.82530,R,ugm-3
07-01-2018,23:00,76.66642,R,ugm-3,80.18000,R,ugm-3,197.73355,R,ugm-3
07-01-2018,24:00,54.94899,R,ugm-3,72.73483,R,ugm-3,156.98878,R,ugm-3
08-01-2018,01:00,52.49968,R,ugm-3,69.29597,R,ugm-3,149.79436,R,ugm-3
08-01-2018,02:00,7.14631,R,ugm-3,49.91424,R,ugm-3,60.87176,R,ugm-3
08-01-2018,03:00,3.46806,R,ugm-3,46.04960,R,ugm-3,51.36722,R,ugm-3
08-01-2018,04:00,2.41713,R,ugm-3,37.40891,R,ugm-3,41.11513,R,ugm-3
08-01-2018,05:00,0.77068,R,ugm-3,31.71041,R,ugm-3,32.89211,R,ugm-3
08-01-2018,06:00,0.70062,R,ugm-3,25.30349,R,ugm-3,26.37776,R,ugm-3
08-01-2018,07:00,9.94878,R,ugm-3,63.02436,R,ugm-3,78.27894,R,ugm-3
08-01-2018,08:00,2.20695,R,ugm-3,41.04176,R,ugm-3,44.42570,R,ugm-3
08-01-2018,09:00,21.61408,R,ugm-3,57.09858,R,ugm-3,90.23971,R,ugm-3
08-01-2018,10:00,2.24198,R,ugm-3,10.49878,R,ugm-3,13.93643,R,ugm-3
08-01-2018,11:00,1.71652,R,ugm-3,9.27542,R,ugm-3,11.90737,R,ugm-3
08-01-2018,12:00,1.99676,R,ugm-3,8.57873,R,ugm-3,11.64039,R,ugm-3
08-01-2018,13:00,1.40124,R,ugm-3,4.25902,R,ugm-3,6.40755,R,ugm-3
08-01-2018,14:00,1.01590,R,ugm-3,2.92760,R,ugm-3,4.48529,R,ugm-3
08-01-2018,15:00,0.59553,R,ugm-3,2.77122,R,ugm-3,3.68434,R,ugm-3
08-01-2018,16:00,0.70062,R,ugm-3,2.82366,R,ugm-3,3.89793,R,ugm-3
08-01-2018,17:00,0.56050,R,ugm-3,2.98512,R,ugm-3,3.84453,R,ugm-3
08-01-2018,18:00,0.70062,R,ugm-3,3.62461,R,ugm-3,4.69887,R,ugm-3
08-01-2018,19:00,0.91081,R,ugm-3,5.97214,R,ugm-3,7.36869,R,ugm-3
08-01-2018,20:00,0.84074,R,ugm-3,9.01636,R,ugm-3,10.30548,R,ugm-3
08-01-2018,21:00,1.36621,R,ugm-3,19.53067,R,ugm-3,21.62549,R,ugm-3
08-01-2018,22:00,0.38534,R,ugm-3,7.63218,R,ugm-3,8.22303,R,ugm-3
08-01-2018,23:00,0.35031,R,ugm-3,9.71495,R,ugm-3,10.25208,R,ugm-3
08-01-2018,24:00,0.35031,R,ugm-3,7.15193,R,ugm-3,7.68907,R,ugm-3
09-01-2018,01:00,0.27707,R,ugm-3,5.84385,R,ugm-3,6.26868,R,ugm-3
09-01-2018,02:00,0.31170,R,ugm-3,5.38574,R,ugm-3,5.86368,R,ugm-3
09-01-2018,03:00,0.20780,R,ugm-3,5.43941,R,ugm-3,5.75803,R,ugm-3
09-01-2018,04:00,0.27707,R,ugm-3,6.91798,R,ugm-3,7.34281,R,ugm-3
09-01-2018,05:00,0.27707,R,ugm-3,8.02732,R,ugm-3,8.45216,R,ugm-3
09-01-2018,06:00,0.34634,R,ugm-3,6.91742,R,ugm-3,7.44846,R,ugm-3
09-01-2018,07:00,0.51951,R,ugm-3,9.29320,R,ugm-3,10.08976,R,ugm-3
09-01-2018,08:00,2.70143,R,ugm-3,13.13196,R,ugm-3,17.27409,R,ugm-3
09-01-2018,09:00,3.42874,R,ugm-3,17.56349,R,ugm-3,22.82082,R,ugm-3
09-01-2018,10:00,2.90924,R,ugm-3,14.92637,R,ugm-3,19.38713,R,ugm-3
09-01-2018,11:00,1.90486,R,ugm-3,10.76119,R,ugm-3,13.68193,R,ugm-3
09-01-2018,12:00,2.45900,R,ugm-3,14.77151,R,ugm-3,18.54192,R,ugm-3
09-01-2018,13:00,2.97850,R,ugm-3,14.87299,R,ugm-3,19.43996,R,ugm-3
09-01-2018,14:00,2.42436,R,ugm-3,13.50397,R,ugm-3,17.22127,R,ugm-3
09-01-2018,15:00,5.26433,R,ugm-3,18.65808,R,ugm-3,26.72994,R,ugm-3
09-01-2018,16:00,8.06966,R,ugm-3,30.73269,R,ugm-3,43.10600,R,ugm-3
09-01-2018,17:00,9.00477,R,ugm-3,32.62691,R,ugm-3,46.43403,R,ugm-3
09-01-2018,18:00,9.45501,R,ugm-3,33.41568,R,ugm-3,47.91316,R,ugm-3
09-01-2018,19:00,5.81847,R,ugm-3,32.91664,R,ugm-3,41.83817,R,ugm-3
09-01-2018,20:00,11.32524,R,ugm-3,38.68324,R,ugm-3,56.04836,R,ugm-3
09-01-2018,21:00,8.45063,R,ugm-3,38.44222,R,ugm-3,51.39968,R,ugm-3
09-01-2018,22:00,4.81409,R,ugm-3,37.78471,R,ugm-3,45.16621,R,ugm-3
09-01-2018,23:00,4.43312,R,ugm-3,38.31603,R,ugm-3,45.11338,R,ugm-3
09-01-2018,24:00,4.36385,R,ugm-3,38.05246,R,ugm-3,44.74360,R,ugm-3
10-01-2018,01:00,9.26670,R,ugm-3,39.44042,R,ugm-3,53.64916,R,ugm-3
10-01-2018,02:00,6.36800,R,ugm-3,39.72199,R,ugm-3,49.48612,R,ugm-3
10-01-2018,03:00,8.45643,R,ugm-3,40.07316,R,ugm-3,53.03951,R,ugm-3
10-01-2018,04:00,4.21110,R,ugm-3,40.31190,R,ugm-3,46.76883,R,ugm-3
10-01-2018,05:00,3.69755,R,ugm-3,37.70271,R,ugm-3,43.37221,R,ugm-3
10-01-2018,06:00,7.63475,R,ugm-3,36.47327,R,ugm-3,48.17973,R,ugm-3
10-01-2018,07:00,16.05695,R,ugm-3,38.40003,R,ugm-3,63.02034,R,ugm-3
10-01-2018,08:00,21.80869,R,ugm-3,37.31466,R,ugm-3,70.75418,R,ugm-3
10-01-2018,09:00,30.94985,R,ugm-3,38.24353,R,ugm-3,85.69931,R,ugm-3
10-01-2018,10:00,31.42916,R,ugm-3,37.40408,R,ugm-3,85.59479,R,ugm-3
10-01-2018,11:00,28.10822,R,ugm-3,35.49387,R,ugm-3,78.59253,R,ugm-3
10-01-2018,12:00,35.67450,R,ugm-3,35.96346,R,ugm-3,90.66359,R,ugm-3
10-01-2018,13:00,42.14521,R,ugm-3,36.28396,R,ugm-3,100.90571,R,ugm-3
10-01-2018,14:00,49.88267,R,ugm-3,36.12528,R,ugm-3,112.61098,R,ugm-3
10-01-2018,15:00,78.74409,R,ugm-3,46.58341,R,ugm-3,167.32267,R,ugm-3
10-01-2018,16:00,71.99949,R,ugm-3,45.58551,R,ugm-3,155.98318,R,ugm-3
10-01-2018,17:00,56.96964,R,ugm-3,45.01139,R,ugm-3,132.36362,R,ugm-3
10-01-2018,18:00,32.38779,R,ugm-3,45.39249,R,ugm-3,95.05307,R,ugm-3
10-01-2018,19:00,34.88706,R,ugm-3,45.11372,R,ugm-3,98.60646,R,ugm-3
10-01-2018,20:00,25.12964,R,ugm-3,45.65232,R,ugm-3,84.18389,R,ugm-3
10-01-2018,21:00,11.22959,R,ugm-3,43.97293,R,ugm-3,61.19139,R,ugm-3
10-01-2018,22:00,5.61480,R,ugm-3,30.42575,R,ugm-3,39.03499,R,ugm-3
10-01-2018,23:00,4.99854,R,ugm-3,35.23759,R,ugm-3,42.90191,R,ugm-3
10-01-2018,24:00,0.68473,R,ugm-3,15.61965,R,ugm-3,16.66956,R,ugm-3
11-01-2018,01:00,0.58655,R,ugm-3,15.36430,R,ugm-3,16.26366,R,ugm-3
11-01-2018,02:00,0.72191,R,ugm-3,15.29458,R,ugm-3,16.40149,R,ugm-3
11-01-2018,03:00,0.50759,R,ugm-3,14.88237,R,ugm-3,15.66067,R,ugm-3
11-01-2018,04:00,0.50759,R,ugm-3,14.26215,R,ugm-3,15.04044,R,ugm-3
11-01-2018,05:00,0.47375,R,ugm-3,10.74774,R,ugm-3,11.47415,R,ugm-3
11-01-2018,06:00,0.71063,R,ugm-3,11.93510,R,ugm-3,13.02471,R,ugm-3
11-01-2018,07:00,1.55661,R,ugm-3,16.32333,R,ugm-3,18.71010,R,ugm-3
11-01-2018,08:00,7.58002,R,ugm-3,28.17520,R,ugm-3,39.79774,R,ugm-3
11-01-2018,09:00,8.62904,R,ugm-3,36.95548,R,ugm-3,50.18650,R,ugm-3
11-01-2018,10:00,10.49021,R,ugm-3,38.13319,R,ugm-3,54.21795,R,ugm-3
11-01-2018,11:00,12.72361,R,ugm-3,36.10420,R,ugm-3,55.61346,R,ugm-3
11-01-2018,12:00,14.28022,R,ugm-3,32.68372,R,ugm-3,54.57975,R,ugm-3
11-01-2018,13:00,18.23943,R,ugm-3,36.53661,R,ugm-3,64.50334,R,ugm-3
11-01-2018,14:00,16.71665,R,ugm-3,37.01083,R,ugm-3,62.64267,R,ugm-3
11-01-2018,15:00,10.05030,R,ugm-3,29.34929,R,ugm-3,44.75953,R,ugm-3
11-01-2018,16:00,6.59868,R,ugm-3,25.13159,R,ugm-3,35.24942,R,ugm-3
11-01-2018,17:00,8.05377,R,ugm-3,29.05104,R,ugm-3,41.39998,R,ugm-3
11-01-2018,18:00,10.05030,R,ugm-3,41.80547,R,ugm-3,57.21571,R,ugm-3
11-01-2018,19:00,5.31278,R,ugm-3,33.40889,R,ugm-3,41.55504,R,ugm-3
11-01-2018,20:00,3.11322,R,ugm-3,27.63319,R,ugm-3,32.40673,R,ugm-3
11-01-2018,21:00,2.43644,R,ugm-3,23.50238,R,ugm-3,27.23819,R,ugm-3
11-01-2018,22:00,2.94403,R,ugm-3,28.71958,R,ugm-3,33.23369,R,ugm-3
11-01-2018,23:00,2.03036,R,ugm-3,22.98793,R,ugm-3,26.10111,R,ugm-3
11-01-2018,24:00,0.54143,R,ugm-3,16.53610,R,ugm-3,17.36628,R,ugm-3
12-01-2018,01:00,0.66884,R,ugm-3,16.14912,R,ugm-3,17.17466,R,ugm-3
12-01-2018,02:00,0.53508,R,ugm-3,13.55994,R,ugm-3,14.38037,R,ugm-3
12-01-2018,03:00,0.36786,R,ugm-3,13.44148,R,ugm-3,14.00553,R,ugm-3
12-01-2018,04:00,0.33442,R,ugm-3,15.48624,R,ugm-3,15.99902,R,ugm-3
12-01-2018,05:00,0.36786,R,ugm-3,14.05486,R,ugm-3,14.61891,R,ugm-3
12-01-2018,06:00,1.70555,R,ugm-3,22.73793,R,ugm-3,25.35308,R,ugm-3
12-01-2018,07:00,15.65095,R,ugm-3,32.63771,R,ugm-3,56.63550,R,ugm-3
12-01-2018,08:00,30.29863,R,ugm-3,39.67164,R,ugm-3,86.12889,R,ugm-3
12-01-2018,09:00,60.96513,R,ugm-3,42.69199,R,ugm-3,136.17055,R,ugm-3
12-01-2018,10:00,49.22692,R,ugm-3,41.52218,R,ugm-3,117.00239,R,ugm-3
12-01-2018,11:00,52.33704,R,ugm-3,47.74313,R,ugm-3,127.99214,R,ugm-3
12-01-2018,12:00,27.48949,R,ugm-3,42.54771,R,ugm-3,84.69767,R,ugm-3
12-01-2018,13:00,7.22352,R,ugm-3,30.42954,R,ugm-3,41.50544,R,ugm-3
12-01-2018,14:00,6.78877,R,ugm-3,29.86938,R,ugm-3,40.27868,R,ugm-3
12-01-2018,15:00,8.19334,R,ugm-3,38.60324,R,ugm-3,51.16619,R,ugm-3
12-01-2018,16:00,16.65421,R,ugm-3,58.29261,R,ugm-3,83.82871,R,ugm-3
12-01-2018,17:00,17.35650,R,ugm-3,64.21855,R,ugm-3,90.83148,R,ugm-3
12-01-2018,18:00,6.45435,R,ugm-3,53.23059,R,ugm-3,63.12711,R,ugm-3
12-01-2018,19:00,3.31078,R,ugm-3,35.35557,R,ugm-3,40.43202,R,ugm-3
12-01-2018,20:00,1.53834,R,ugm-3,34.49521,R,ugm-3,36.85397,R,ugm-3
12-01-2018,21:00,2.37440,R,ugm-3,29.43076,R,ugm-3,33.07145,R,ugm-3
12-01-2018,22:00,1.07015,R,ugm-3,27.29025,R,ugm-3,28.93113,R,ugm-3
12-01-2018,23:00,0.86950,R,ugm-3,26.11558,R,ugm-3,27.44879,R,ugm-3
12-01-2018,24:00,0.30098,R,ugm-3,14.71968,R,ugm-3,15.18118,R,ugm-3
13-01-2018,01:00,0.30842,R,ugm-3,11.72523,R,ugm-3,12.19814,R,ugm-3
13-01-2018,02:00,0.35248,R,ugm-3,8.69238,R,ugm-3,9.23284,R,ugm-3
13-01-2018,03:00,0.26436,R,ugm-3,13.94937,R,ugm-3,14.35471,R,ugm-3
13-01-2018,04:00,0.33045,R,ugm-3,25.32169,R,ugm-3,25.82838,R,ugm-3
13-01-2018,05:00,0.19827,R,ugm-3,13.14090,R,ugm-3,13.44491,R,ugm-3
13-01-2018,06:00,0.26436,R,ugm-3,12.98902,R,ugm-3,13.39436,R,ugm-3
13-01-2018,07:00,0.33045,R,ugm-3,14.50511,R,ugm-3,15.01180,R,ugm-3
13-01-2018,08:00,0.66090,R,ugm-3,13.34135,R,ugm-3,14.35471,R,ugm-3
13-01-2018,09:00,2.84187,R,ugm-3,19.95456,R,ugm-3,24.31203,R,ugm-3
13-01-2018,10:00,2.08184,R,ugm-3,22.38355,R,ugm-3,25.57565,R,ugm-3
13-01-2018,11:00,2.28011,R,ugm-3,16.36798,R,ugm-3,19.86409,R,ugm-3
13-01-2018,12:00,2.18097,R,ugm-3,16.21672,R,ugm-3,19.56082,R,ugm-3
13-01-2018,13:00,2.47838,R,ugm-3,16.26615,R,ugm-3,20.06627,R,ugm-3
13-01-2018,14:00,3.13928,R,ugm-3,19.75127,R,ugm-3,24.56476,R,ugm-3
13-01-2018,15:00,2.84187,R,ugm-3,23.49269,R,ugm-3,27.85017,R,ugm-3
13-01-2018,16:00,2.31315,R,ugm-3,22.93868,R,ugm-3,26.48546,R,ugm-3
13-01-2018,17:00,2.04879,R,ugm-3,24.35492,R,ugm-3,27.49635,R,ugm-3
13-01-2018,18:00,1.68530,R,ugm-3,20.76760,R,ugm-3,23.35168,R,ugm-3
13-01-2018,19:00,3.23841,R,ugm-3,24.75483,R,ugm-3,29.72032,R,ugm-3
13-01-2018,20:00,1.22267,R,ugm-3,23.59984,R,ugm-3,25.47456,R,ugm-3
13-01-2018,21:00,2.24706,R,ugm-3,31.12718,R,ugm-3,34.57262,R,ugm-3
13-01-2018,22:00,0.49568,R,ugm-3,20.92368,R,ugm-3,21.68371,R,ugm-3
13-01-2018,23:00,0.56177,R,ugm-3,17.18312,R,ugm-3,18.04448,R,ugm-3
13-01-2018,24:00,0.19827,R,ugm-3,15.56705,R,ugm-3,15.87106,R,ugm-3
14-01-2018,01:00,0.34824,R,ugm-3,15.59113,R,ugm-3,16.12510,R,ugm-3
14-01-2018,02:00,0.26118,R,ugm-3,14.32534,R,ugm-3,14.72581,R,ugm-3
14-01-2018,03:00,0.22854,R,ugm-3,13.39256,R,ugm-3,13.74298,R,ugm-3
14-01-2018,04:00,0.26118,R,ugm-3,13.24256,R,ugm-3,13.64303,R,ugm-3
14-01-2018,05:00,0.39177,R,ugm-3,14.99132,R,ugm-3,15.59203,R,ugm-3
14-01-2018,06:00,0.39177,R,ugm-3,15.09127,R,ugm-3,15.69198,R,ugm-3
14-01-2018,07:00,0.29383,R,ugm-3,17.29040,R,ugm-3,17.74094,R,ugm-3
14-01-2018,08:00,0.65296,R,ugm-3,17.98911,R,ugm-3,18.99030,R,ugm-3
14-01-2018,09:00,0.62031,R,ugm-3,13.89129,R,ugm-3,14.84242,R,ugm-3
14-01-2018,10:00,1.33856,R,ugm-3,14.98886,R,ugm-3,17.04129,R,ugm-3
14-01-2018,11:00,1.20797,R,ugm-3,11.59094,R,ugm-3,13.44313,R,ugm-3
14-01-2018,12:00,2.15476,R,ugm-3,18.28506,R,ugm-3,21.58897,R,ugm-3
14-01-2018,13:00,2.28535,R,ugm-3,18.68451,R,ugm-3,22.18866,R,ugm-3
14-01-2018,14:00,2.31800,R,ugm-3,20.23363,R,ugm-3,23.78785,R,ugm-3
14-01-2018,15:00,1.99152,R,ugm-3,23.18298,R,ugm-3,26.23660,R,ugm-3
14-01-2018,16:00,1.59975,R,ugm-3,22.33443,R,ugm-3,24.78734,R,ugm-3
14-01-2018,17:00,1.37121,R,ugm-3,21.68535,R,ugm-3,23.78785,R,ugm-3
14-01-2018,18:00,1.76298,R,ugm-3,20.33503,R,ugm-3,23.03823,R,ugm-3
14-01-2018,19:00,0.52237,R,ugm-3,17.13988,R,ugm-3,17.94083,R,ugm-3
14-01-2018,20:00,0.48972,R,ugm-3,15.39086,R,ugm-3,16.14175,R,ugm-3
14-01-2018,21:00,0.52237,R,ugm-3,12.99200,R,ugm-3,13.79295,R,ugm-3
14-01-2018,22:00,0.39177,R,ugm-3,12.89239,R,ugm-3,13.49311,R,ugm-3
14-01-2018,23:00,0.26118,R,ugm-3,13.54240,R,ugm-3,13.94288,R,ugm-3
14-01-2018,24:00,0.29383,R,ugm-3,11.94313,R,ugm-3,12.39367,R,ugm-3
15-01-2018,01:00,0.21501,R,ugm-3,13.96460,R,ugm-3,14.29427,R,ugm-3
15-01-2018,02:00,0.30101,R,ugm-3,13.30576,R,ugm-3,13.76729,R,ugm-3
15-01-2018,03:00,0.29026,R,ugm-3,11.11552,R,ugm-3,11.56058,R,ugm-3
15-01-2018,04:00,0.29026,R,ugm-3,10.72029,R,ugm-3,11.16534,R,ugm-3
15-01-2018,05:00,0.25801,R,ugm-3,9.58404,R,ugm-3,9.97964,R,ugm-3
15-01-2018,06:00,0.32251,R,ugm-3,12.00475,R,ugm-3,12.49925,R,ugm-3
15-01-2018,07:00,0.74177,R,ugm-3,17.09278,R,ugm-3,18.23014,R,ugm-3
15-01-2018,08:00,0.99977,R,ugm-3,24.40423,R,ugm-3,25.93719,R,ugm-3
15-01-2018,09:00,3.03156,R,ugm-3,36.90057,R,ugm-3,41.54890,R,ugm-3
15-01-2018,10:00,2.96706,R,ugm-3,30.03349,R,ugm-3,34.58292,R,ugm-3
15-01-2018,11:00,2.61230,R,ugm-3,29.24353,R,ugm-3,33.24900,R,ugm-3
15-01-2018,12:00,3.32182,R,ugm-3,23.61044,R,ugm-3,28.70382,R,ugm-3
15-01-2018,13:00,5.06335,R,ugm-3,28.84479,R,ugm-3,36.60849,R,ugm-3
15-01-2018,14:00,4.77310,R,ugm-3,19.65603,R,ugm-3,26.97467,R,ugm-3
15-01-2018,15:00,2.51555,R,ugm-3,12.44625,R,ugm-3,16.30337,R,ugm-3
15-01-2018,16:00,2.22530,R,ugm-3,17.18946,R,ugm-3,20.60154,R,ugm-3
15-01-2018,17:00,1.64478,R,ugm-3,24.35390,R,ugm-3,26.87587,R,ugm-3
15-01-2018,18:00,1.87054,R,ugm-3,27.46604,R,ugm-3,30.33416,R,ugm-3
15-01-2018,19:00,1.29003,R,ugm-3,32.01205,R,ugm-3,33.99007,R,ugm-3